Location: Jarosław
(50.0191°N, 22.6835°E)
Time: 20:09:38
(UTC+02:00)

ISS - Pass Details

Date: 23 March 2019
Orbit: 408 x 410 km, 51.6° (Epoch: 25 April)

Event Time Altitude Azimuth Distance (km) Brightness Sun altitude
Rises 20:18:34 0° 252° (WSW) 2,331 0.5 -23.8°
Reaches altitude 10° 20:20:39 10° 252° (WSW) 1,472 -0.6 -24.1°
Enters shadow 20:21:59 22° 251° (WSW) 940 -1.7 -24.2°
